Location: Barcelona
(41.3830°N, 2.1830°E)
Time: 23:31:53
(UTC+02:00)

ISS - Pass Details

Date: 22 May 2019
Orbit: 408 x 418 km, 51.6° (Epoch: 26 May)

Event Time Altitude Azimuth Distance (km) Brightness Sun altitude
Rises 02:42:03 0° 309° (NW) 2,361 0.4 -27.1°
Reaches altitude 10° 02:44:17 10° 319° (NW) 1,497 -0.6 -27.0°
Enters shadow 02:44:46 13° 323° (NW) 1,322 -0.8 -26.9°
